Location: Butte
(46.0040°N, 112.5340°W)
Time: 05:01:45
(UTC-06:00)

Daily predictions for brighter satellites

Satellite Brightness Start Highest point End
(mag) Time Altitude Azimuth Time Altitude Azimuth Time Altitude Azimuth
USA 234 4.4 00:04:01 10° NE 00:10:09 44° NNW 00:16:17 10° W
Terra 2.9 00:08:32 25° SW 00:10:25 35° W 00:14:47 10° NNW
Cosmos 2228 2.9 00:08:54 10° N 00:13:12 89° E 00:13:55 61° S
Cosmos 1726 Rocket 3.6 00:09:38 10° NNW 00:14:02 70° W 00:14:59 52° SSW
Cosmos 1766 3.3 00:10:34 10° NNW 00:14:32 68° W 00:15:03 59° SW
ISS -1.8 00:12:07 10° WNW 00:15:02 29° N 00:17:57 10° ENE
Meteor 1-21 4.2 00:14:44 43° SSE 00:16:32 71° E 00:22:10 10° NNE
Cosmos 1538 Rocket 4.2 00:15:59 46° SE 00:16:57 53° ESE 00:22:03 10° NNE
Abrixas rocket 2.9 00:14:58 10° W 00:18:09 52° N 00:18:40 46° NE
Meteor 1-22 Rocket 4.4 00:16:44 10° NNW 00:22:01 58° W 00:23:47 38° SSW
Cosmos 1758 3.5 00:21:22 10° N 00:25:25 58° E 00:25:42 56° E
Cosmos 2058 Rocket 3.1 00:21:33 10° NNW 00:26:05 75° W 00:26:53 58° SSW
Cosmos 2219 3.4 00:26:40 26° SW 00:29:57 71° WNW 00:35:43 10° NNE
COSMOS 2455 3.1 00:30:39 43° SSE 00:31:52 49° ESE 00:37:39 10° NE
Spot 4 4.3 00:32:42 43° SW 00:33:51 52° W 00:38:36 10° NNW
SAR-Lupe-4 4.5 00:34:22 38° W 00:34:22 38° W 00:37:42 10° NNW
ADEOS Rocket 3.5 00:30:18 10° NNE 00:35:24 36° E 00:36:22 34° ESE
CZ-4 R/B 3.8 00:30:39 10° NNE 00:35:42 78° ESE 00:36:48 55° S
DELTA 2 DEB (DPAF) 4.3 00:35:55 53° ESE 00:36:39 61° ENE 00:41:04 10° N
Cosmos 1733 3.2 00:35:40 10° N 00:39:29 72° ENE 00:39:29 72° ENE
CZ-4B R/B 4.0 00:35:46 10° NNE 00:40:36 43° E 00:41:18 41° ESE
ALOS 2 2.7 00:40:16 55° ESE 00:40:53 62° ENE 00:45:14 10° N
ERBS 3.3 00:39:41 10° NW 00:42:56 41° NNE 00:43:10 40° NE
Cosmos 1655 Rocket 4.3 00:45:10 10° NNW 00:51:27 61° W 00:53:46 38° SSW
Cosmos 1805 4.3 00:48:19 10° NNW 00:51:56 35° W 00:52:06 35° W
Cosmos 1842 4.0 00:52:22 41° W 00:52:49 43° WNW 00:56:35 10° N
CENTAUR R/B 4.4 00:47:15 10° W 00:52:54 31° NNW 00:59:19 10° NNE
CZ-2C R/B 3.7 00:48:08 10° N 00:53:24 43° WNW 00:56:30 23° SW
COBE Rocket 4.0 00:49:07 10° N 00:53:47 65° WNW 00:54:56 48° SW
Cosmos 1470 2.7 00:51:55 10° N 00:55:42 80° NE 00:55:42 80° NE
Cosmos 2219 Rocket 3.3 00:51:03 10° NW 00:55:50 29° WSW 00:57:01 27° SW
NOSS 0 Rocket 4.5 00:51:23 10° NW 00:57:16 45° WSW 00:58:52 37° SW
Cosmos 2279 Rocket 4.4 00:55:27 32° SW 00:58:15 55° WNW 01:04:22 10° N
Cosmos 1812 Rocket 3.4 00:53:54 10° N 00:58:17 73° E 00:58:36 69° ESE
Cosmos 1626 Rocket 3.4 00:58:43 73° SSW 00:59:07 88° W 01:03:37 10° N
CZ-4C R/B 3.4 00:59:39 72° SSE 01:00:07 89° NE 01:04:35 10° NNW
Cosmos 1602 Rocket 3.4 01:00:59 77° S 01:01:18 87° E 01:05:44 10° N
Cosmos 773 Rocket 4.1 01:00:31 45° SW 01:02:01 70° WNW 01:07:11 10° NNE
Cosmos 1953 2.5 01:03:57 10° NNW 01:07:49 62° W 01:07:49 62° W
Meteor 2-5 Rocket 4.4 01:10:12 38° SE 01:11:37 44° E 01:17:11 10° NNE
Cosmos 1758 Rocket 4.5 01:13:07 36° E 01:13:24 36° E 01:17:31 10° NNE
Cosmos 2333 Rocket 3.6 01:10:06 10° NW 01:14:36 24° WSW 01:15:37 23° WSW
SL-16 R/B 2.1 01:15:24 10° NNW 01:21:06 88° WSW 01:22:35 52° SSE
Meteor 1-16 Rocket 4.1 01:16:58 10° N 01:22:18 75° ENE 01:23:31 53° SSE
Cosmos 2263 Rocket 4.4 01:22:47 11° ESE 01:23:57 12° E 01:25:59 10° ENE
Cosmos 1707 2.8 01:24:37 76° NW 01:24:37 76° NW 01:28:25 10° N
H-2A R/B 2.1 01:24:33 60° WSW 01:24:41 61° WSW 01:28:56 10° NNW
Cosmos 1818 3.4 01:26:14 56° SSW 01:27:25 81° SE 01:32:54 10° NE
Mayak -0.6 01:26:49 10° N 01:30:55 48° WNW 01:31:30 44° W
Cosmos 1726 4.3 01:33:17 10° NNE 01:35:45 17° ENE 01:36:35 16° E
Cosmos 2266 Rocket 4.4 01:30:01 10° NNW 01:36:08 53° W 01:38:07 39° SW
Cosmos 1238 Rocket 3.1 01:38:01 65° SE 01:38:24 69° E 01:42:28 10° NNE
Cosmos 2297 Rocket 2.8 01:38:31 31° WSW 01:41:00 51° WNW 01:46:33 10° NNE
Cosmos 1371 Rocket 4.0 01:36:48 10° NNW 01:42:06 77° ENE 01:43:28 50° SE
Cosmos 1553 Rocket 4.5 01:41:05 36° SE 01:43:09 50° E 01:49:04 10° NNE
Cosmos 2227 Rocket 3.0 01:41:33 26° WSW 01:44:22 44° NW 01:49:48 10° NNE
CZ-4C R/B 4.4 01:40:10 10° WNW 01:45:01 19° WSW 01:46:24 18° WSW
Cosmos 2237 Rocket 3.6 01:44:19 10° NW 01:48:42 23° WSW 01:49:16 23° WSW
IKONOS-2 4.5 01:50:45 67° WSW 01:50:50 67° WSW 01:55:04 10° NNW
ISS -2.6 01:48:45 10° WNW 01:51:14 41° NNW 01:51:14 41° NNW
Cosmos 1603 4.1 01:46:55 10° NNW 01:52:31 59° ENE 01:55:22 29° SE
Cosmos 1825 Rocket 3.5 01:52:22 69° SW 01:52:44 75° W 01:57:12 10° N
CZ-4C R/B 4.1 01:56:09 34° ENE 01:56:09 34° ENE 01:59:12 10° N
Cosmos 2082 4.5 01:54:44 28° WSW 01:57:24 46° WNW 02:02:56 10° NNE
Cosmos 2056 Rocket 3.4 01:53:59 10° NNW 01:59:08 85° ENE 02:00:23 53° SSE
Cosmos 2292 Rocket 3.8 01:57:26 10° N 02:01:20 67° E 02:02:11 54° SE
Cosmos 2227 4.5 02:03:34 45° SSE 02:04:50 54° ESE 02:10:21 10° NE
Cosmos 1437 3.9 02:03:19 10° N 02:05:56 38° NE 02:05:56 38° NE
Cosmos 1680 Rocket 4.0 02:05:38 38° WSW 02:07:15 51° WNW 02:12:21 10° NNE
Cosmos 1624 Rocket 3.9 02:04:01 10° NNW 02:09:21 76° WSW 02:10:34 53° S
Cosmos 2112 Rocket 4.3 02:08:31 41° WSW 02:10:01 56° WNW 02:15:09 10° NNE
Cosmos 1400 Rocket 3.4 02:10:53 45° W 02:11:12 46° WNW 02:15:13 10° N
In-Cosmos 22 4.0 02:15:09 50° SSW 02:16:30 75° WNW 02:21:53 10° N
Cosmos 1417 Rocket 4.5 02:14:22 43° SSW 02:16:38 85° W 02:23:03 10° N
COSMOS 2455 4.1 02:13:44 16° WSW 02:17:59 36° NW 02:23:32 10° NNE
Cosmos 1674 2.8 02:18:40 64° E 02:18:40 64° E 02:22:22 10° NNE
ADEOS Rocket 3.9 02:16:00 10° N 02:20:56 33° WNW 02:23:19 23° WSW
SL-16 R/B 4.0 02:15:41 10° ESE 02:21:05 32° ENE 02:26:28 10° N
Cosmos 1842 Rocket 3.9 02:22:48 10° N 02:27:09 59° ENE 02:28:16 43° SE
CZ-4B R/B 2.2 02:27:51 43° E 02:28:15 45° ENE 02:31:32 10° N
Cosmos 1745 Rocket 4.0 02:22:37 10° N 02:29:01 85° W 02:31:39 38° S
NOSS 3-1 (C) 3.5 02:27:45 43° S 02:29:28 60° ESE 02:35:46 10° NE
CZ-2D R/B 4.1 02:25:57 10° NE 02:29:38 19° E 02:32:32 13° SE
Cosmos 1340 3.8 02:27:31 10° N 02:31:03 37° ENE 02:32:07 30° ESE
Aureole 1 Rocket 4.0 02:35:14 23° E 02:35:14 23° E 02:37:25 10° NE
SeaSat 1 4.1 02:37:43 10° ESE 02:42:06 33° NE 02:46:30 10° NNW
Cosmos 1315 Rocket 3.5 02:44:10 39° W 02:44:32 40° WNW 02:48:17 10° N
S3M 4.1 02:44:57 37° SSW 02:47:24 65° WNW 02:53:39 10° N
USA 229 DEB 3.8 02:44:51 29° SW 02:48:33 69° NW 02:55:31 10° NE
USA 229 3.8 02:44:58 29° SW 02:48:39 70° NW 02:55:37 10° NE
Cosmos-2242 4.1 02:45:55 10° NNW 02:49:39 30° W 02:49:51 29° W
NOSS 3-1 (A) 3.6 02:47:39 38° S 02:49:44 58° ESE 02:56:03 10° NE
Meteor 1-24 Rocket 4.4 02:49:22 32° WSW 02:51:31 46° WNW 02:57:12 10° N
Resurs 1-4 Rocket 3.5 02:46:53 10° NNE 02:51:34 30° E 02:54:35 18° SE
H-2A R/B 4.1 02:48:38 10° NE 02:52:30 28° E 02:54:27 20° SE
SL-24 R/B 4.2 02:51:18 10° N 02:54:49 45° WNW 02:55:14 43° W
Cosmos 1908 3.9 02:51:19 10° NNW 02:54:48 37° W 02:54:48 37° W
KORONAS-FOTON 3.8 02:55:29 56° WSW 02:55:51 60° W 02:59:39 10° N
NPP 4.3 02:51:39 10° NNE 02:56:51 47° E 02:59:32 26° SSE
Cosmos 1689 Rocket 2.1 02:58:08 81° NW 02:58:08 81° NW 03:01:10 10° NNW
USA 267 4.3 02:53:19 10° ENE 02:58:58 30° SE 03:01:37 23° SSE
Cosmos 1346 Rocket 3.7 03:00:11 10° NNW 03:03:34 32° W 03:03:34 32° W
Landsat 5 3.6 03:03:32 48° SW 03:04:06 53° W 03:08:04 10° NNW
SL-16 R/B 4.1 03:01:39 10° WNW 03:04:20 14° W 03:04:26 14° W
Cosmos 1943 3.1 02:58:52 10° NNW 03:04:33 69° WSW 03:07:25 30° S
Cosmos 1300 2.6 03:01:42 10° N 03:05:33 87° E 03:06:26 51° SSE
UNK 4.4 03:02:34 19° SE 03:05:45 53° ENE 03:10:20 10° N
Cosmos 1709 Rocket 4.0 02:59:36 10° N 03:06:02 87° W 03:09:45 27° S
Cosmos 2263 Rocket 2.2 03:04:28 36° SSW 03:06:53 79° ESE 03:12:37 10° NNE
DELTA 2 R/B (1) 3.9 03:05:39 36° SW 03:06:57 42° S 03:12:13 10° ESE
Spot 2 4.4 03:02:10 10° NNE 03:07:18 80° WNW 03:09:12 39° SSW
MOS 1 Rocket 4.4 03:02:51 10° N 03:07:59 42° WNW 03:10:14 28° WSW
SL-08 R/B 3.9 03:05:03 18° SSE 03:08:37 59° ENE 03:13:27 10° N
Cosmos 1726 2.9 03:07:47 10° NNW 03:11:08 34° W 03:11:08 34° W
Meteor 2-10 4.2 03:08:19 10° NNW 03:13:12 51° W 03:14:51 36° SW
Cosmos 1607 4.4 03:07:59 10° NNW 03:14:24 65° NE 03:20:41 10° SE
Cosmos 1455 4.3 03:12:44 10° NNE 03:15:53 24° ENE 03:19:00 10° SE
Cosmos 2285 Rocket 4.1 03:13:13 29° S 03:16:38 75° ESE 03:23:00 10° NNE
GEOS 3 Rocket 3.6 03:11:19 10° NE 03:16:42 82° NW 03:19:20 31° SW
Cosmos 1076 Rocket 3.6 03:24:23 32° S 03:26:19 73° E 03:30:39 10° NNE
Cosmos 1269 Rocket 4.2 03:30:29 26° S 03:33:24 66° ESE 03:38:40 10° NNE
USA 234 4.3 03:28:15 10° E 03:34:26 47° NNE 03:40:38 10° NW
SL-14 R/B 3.7 03:34:30 36° SW 03:35:36 47° WNW 03:39:21 10° N
Cosmos 2221 2.9 03:32:58 10° NNW 03:37:12 48° W 03:38:48 32° SW
Cosmos 1452 Rocket 4.3 03:34:09 10° NW 03:38:53 34° WSW 03:40:37 27° SW
MOZ.5/SAFIR/RUBIN 5/SL-8 4.0 03:36:20 13° SSE 03:40:34 74° ENE 03:45:21 10° N
NOSS 2-3 (D) 4.5 03:41:31 24° S 03:43:58 47° ESE 03:49:04 10° NE
Cosmos 1328 3.8 03:45:26 31° SSW 03:47:14 74° W 03:51:15 10° N
Cosmos 1048 Rocket 4.1 03:46:50 26° SW 03:49:45 67° WNW 03:55:01 10° NNE
TELKOM 3 4.3 03:49:48 19° WNW 03:51:27 41° NNW 03:53:41 10° ENE
Meteor 1-27 4.4 03:46:17 10° N 03:51:59 74° ENE 03:57:43 10° SSE
SAR-Lupe-2 4.4 03:48:34 10° SSE 03:52:01 49° ENE 03:55:29 10° N
Cosmos 1626 2.3 03:52:29 31° SW 03:54:01 57° WNW 03:57:43 10° N
Geosat 4.4 03:49:47 10° NE 03:54:45 57° ESE 03:58:17 19° S
SL-24 R/B - RUBIN 2 3.8 03:56:34 24° SW 03:59:48 86° NW 04:04:36 10° NE
Cosmos 1328 Rocket 4.0 03:56:28 10° N 04:00:46 61° E 04:05:01 10° SSE
CZ-4B R/B 3.7 04:01:17 12° W 04:01:17 12° W 04:02:25 10° WNW
SL-16 R/B 2.8 03:59:47 17° S 04:04:28 49° W 04:10:29 10° NNW
NOSS 2-3 (E) 3.9 04:01:40 22° SSW 04:04:37 73° SE 04:10:03 10° NE
Cosmos 1340 4.5 04:04:01 10° NW 04:06:24 16° W 04:06:54 16° W
Cosmos 2228 Rocket 4.1 04:01:57 10° N 04:06:25 49° ENE 04:10:50 10° SSE
IRS-1C 4.2 04:01:15 10° N 04:06:34 68° WNW 04:10:25 19° SSW
PSLV R/B 4.0 04:03:35 17° S 04:06:41 62° W 04:10:52 10° NNW
Genesis I 3.6 04:04:45 23° WSW 04:07:02 56° NW 04:11:03 10° NNE
Cosmos 1766 Rocket 3.5 04:04:53 20° SSW 04:07:47 79° W 04:12:11 10° N
Spot 4 Rocket 4.0 04:04:11 10° NNE 04:09:22 87° ESE 04:13:34 16° SSW
CZ-2D R/B 2.2 04:05:00 10° N 04:10:08 60° WNW 04:13:52 19° SW
Cosmos 921 Rocket 3.3 04:08:07 10° NNW 04:12:14 47° WSW 04:15:35 15° S
ATLAS 2AS CENTAUR R/B 4.2 04:06:19 10° S 04:13:15 36° ESE 04:20:28 10° NE
CRYOSAT 2 4.3 04:09:45 11° S 04:14:27 83° W 04:19:24 10° N
Aureole 1 Rocket 4.4 04:17:57 12° W 04:19:24 15° WNW 04:21:18 10° NNW
SeaSat 1 2.9 04:14:52 10° S 04:19:31 41° WSW 04:24:12 10° NW
Cosmos 1515 Rocket 3.8 04:18:24 10° N 04:22:45 72° E 04:27:05 10° SSE
GP-B 4.4 04:19:39 10° NNE 04:23:51 39° E 04:28:00 10° SSE
IRS-1D 4.0 04:21:39 10° N 04:26:51 53° WNW 04:31:10 15° SW
H-2A R/B 3.6 04:24:00 10° N 04:28:01 32° WNW 04:31:03 15° WSW
Meteor 2-10 Rocket 4.1 04:23:16 10° N 04:28:19 59° ENE 04:33:14 10° SSE
Cosmos 2341 Rocket 4.4 04:22:21 10° N 04:28:36 66° E 04:34:49 10° SSE
Cosmos 1441 Rocket 3.7 04:25:04 10° N 04:29:03 65° ENE 04:32:58 10° SSE
Cosmos 1703 3.8 04:27:17 17° SW 04:30:01 45° WNW 04:33:51 10° N
Cosmos 1809 Rocket 4.5 04:25:07 10° NNW 04:31:10 65° W 04:37:09 10° S
Resurs 1-4 Rocket 2.8 04:26:33 10° N 04:31:28 40° WNW 04:35:40 14° SW
Cosmos 1844 Rocket 2.8 04:27:19 13° SSW 04:32:22 85° ESE 04:38:05 10° NNE
ARIANE 5 R/B 2.7 04:27:48 10° N 04:32:50 60° WNW 04:37:17 13° SSW
Cosmos 1110 Rocket 4.3 04:28:03 10° NNW 04:32:59 44° WSW 04:37:51 10° S
Cosmos 1408 Rocket 3.9 04:32:05 15° SSW 04:35:28 48° WNW 04:39:43 10° N
UNKNOWN OBJECT B 2.6 04:34:55 10° NNE 04:38:39 84° WNW 04:42:24 10° SSW
Cosmos 1151 Rocket 3.0 04:34:30 10° NNW 04:38:53 78° W 04:43:13 10° S
Cosmos 2278 Rocket 3.6 04:35:27 10° SSE 04:40:29 34° ESE 04:45:34 10° NE
Helios 1A Rocket 2.9 04:37:20 10° N 04:41:28 77° WNW 04:45:30 10° SSW
USA 267 3.3 04:35:52 10° NE 04:42:27 86° NW 04:48:58 10° WSW
NOSS 2-3 (C) 4.2 04:38:50 13° SW 04:42:56 62° NW 04:48:31 10° NE
Cosmos 494 Rocket 4.3 04:39:14 13° SW 04:43:46 57° WNW 04:48:56 10° NNE
Cosmos 1844 3.8 04:39:31 10° SSW 04:45:06 83° ESE 04:50:50 10° NNE
Cosmos 2058 3.3 04:43:47 11° SSW 04:47:38 50° WNW 04:51:46 10° N
CZ-2D R/B 3.7 04:45:10 10° N 04:49:36 66° WNW 04:53:59 10° SSW
Cosmos 1455 3.4 04:48:23 10° NW 04:51:28 24° W 04:54:26 10° SW
Cosmos 2263 Rocket 3.9 04:47:14 10° W 04:51:30 21° NW 04:55:49 10° N
ADEOS II 2.2 04:47:54 10° NNE 04:53:12 81° ESE 04:58:27 10° SSW
Cosmos 1869 3.2 04:49:41 10° NNW 04:53:39 76° W 04:57:34 10° S
ATLAS 3B R/B 3.4 04:47:18 10° NNW 04:53:54 58° NE 05:00:22 10° SE
Nadezhda 1 Rocket 4.4 04:49:53 10° SSW 04:55:53 50° WNW 05:02:02 10° N
Cosmos 2154 Rocket 4.2 04:52:16 10° NNW 04:58:21 53° W 05:04:27 10° SSW
Timation 1 Rocket 4.4 04:59:31 10° SW 05:05:28 73° WNW 05:11:27 10° NNE
Cosmos 1743 Rocket 3.9 05:01:47 10° SSW 05:05:56 46° WNW 05:10:08 10° N
COSMOS 2406 3.4 05:01:50 10° NW 05:07:27 53° WSW 05:13:01 10° S
Cosmos 2151 4.0 05:12:22 10° SW 05:16:13 31° WNW 05:20:06 10° N
USA 234 3.3 05:10:41 10° SE 05:17:13 77° SW 05:23:47 10° NW
